Location: Dealu Mare
(46.0500°N, 22.8167°E)
Time: 08:15:54
(UTC+00:00)

CZ-2D R/B - Pass Details

Date: 15 January 2026
Orbit: 389 x 399 km, 97.4° (Epoch: 9 February)

Event Time Altitude Azimuth Distance (km) Brightness Sun altitude
Rises 05:20:18 0° 9° (N) 2,330 6.4 -8.1°
Reaches altitude 10° 05:22:18 10° 6° (N) 1,461 5.3 -7.8°
Maximum altitude 05:25:23 62° 285° (WNW) 453 2.6 -7.3°
Drops below altitude 10° 05:28:25 10° 204° (SSW) 1,436 5.5 -6.8°
Sets 05:30:23 0° 201° (SSW) 2,284 6.5 -6.5°
